Вернуться в каталог

THORAD AGENA D DEB

АктивенLEO
NORAD 4145·DEBRIS·🇺🇸 United States

Запущен Sep 30, 1969 с Vandenberg Space Force Base

Loading…

Ближайшие Пролёты (ближайшие 24 часа)

TLE

СвежийSource: Space-Track

Эпоха: Sep 14, 2026, 14:02 UTC

1 04145U 69082P   26257.58475350 -.00000233  00000-0 -96326-4 0  9998
2 04145  70.0586 312.0421 0058057 140.2564 220.2826 14.11768381930343

Отслеживайте THORAD AGENA D DEB в реальном времени с AllMySat

Download on the App Store